Location: Arcizac
(43.0933°N, 0.0112°E)
Time: 17:12:07
(UTC+00:00)

Cosmos 2369 Rocket - Pass Details

Date: 14 December 2019
Orbit: 828 x 853 km, 71.0° (Epoch: 28 January)

Event Time Altitude Azimuth Distance (km) Brightness Sun altitude
Rises 18:00:20 0° 339° (NNW) 3,392 5.4 -16.6°
Reaches altitude 10° 18:02:53 10° 346° (NNW) 2,458 4.6 -17.1°
Maximum altitude 18:08:19 47° 59° (ENE) 1,110 2.4 -18.0°
Enters shadow 18:12:56 14° 130° (SE) 2,176 4.0 -18.8°
